This is the latest recevied weather packets stored in our database for station/object AC1IX. If no packets are shown the sender has not sent any weather packets the latest 10 day(s).
| Time | Temp. | Humidity | Pressure | Rain* | Wind** | Luminosity | Snow |
|---|---|---|---|---|---|---|---|
| 1777864548 | 7.22° C | 61% | 1011 hPa | 0 mm | - | 0 W/m² | - |
| 1777864245 | 7.78° C | 59% | 1011 hPa | 0 mm | - | 0 W/m² | - |
| 1777863942 | 7.78° C | 57% | 1011.2 hPa | 0 mm | - | 0 W/m² | - |
| 1777863638 | 7.78° C | 56% | 1011.2 hPa | 0 mm | - | 0 W/m² | - |
| 1777863335 | 7.78° C | 56% | 1011 hPa | 0 mm | - | 0 W/m² | - |
| 1777863032 | 7.78° C | 53% | 1011.2 hPa | 0 mm | - | 0 W/m² | - |
| 1777862729 | 8.33° C | 54% | 1011.1 hPa | 0 mm | - | 0 W/m² | - |
| 1777862426 | 8.33° C | 51% | 1011 hPa | 0 mm | - | 0 W/m² | - |
| 1777862122 | 8.33° C | 55% | 1011.2 hPa | 0 mm | - | 0 W/m² | - |
| 1777861818 | 8.33° C | 53% | 1011.2 hPa | 0 mm | - | 0 W/m² | - |
| 1777861514 | 8.33° C | 52% | 1011.1 hPa | 0 mm | - | 0 W/m² | - |
| 1777861211 | 8.33° C | 51% | 1011.3 hPa | 0 mm | - | 0 W/m² | - |
| 1777860909 | 8.33° C | 51% | 1011.3 hPa | 0 mm | - | 0 W/m² | - |
| 1777860606 | 8.33° C | 49% | 1011.3 hPa | 0 mm | - | 0 W/m² | - |
| 1777860302 | 8.33° C | 49% | 1011.2 hPa | 0 mm | - | 0 W/m² | - |
| 1777859999 | 8.33° C | 48% | 1011.1 hPa | 0 mm | - | 0 W/m² | - |
| 1777859695 | 8.33° C | 50% | 1011.2 hPa | 0 mm | - | 0 W/m² | - |
| 1777859391 | 8.33° C | 49% | 1011.2 hPa | 0 mm | - | 0 W/m² | - |
| 1777859087 | 8.33° C | 51% | 1011.2 hPa | 0 mm | - | 0 W/m² | - |
| 1777858784 | 7.78° C | 50% | 1011.5 hPa | 0 mm | - | 0 W/m² | - |
| 1777858483 | 7.22° C | 53% | 1011 hPa | 0 mm | - | 0 W/m² | - |
| 1777858178 | 7.22° C | 52% | 1011.1 hPa | 0 mm | - | 0 W/m² | - |
| 1777857877 | 7.78° C | 52% | 1011.1 hPa | 0 mm | - | 0 W/m² | - |
| 1777857574 | 7.78° C | 51% | 1010.9 hPa | 0 mm | - | 0 W/m² | - |
| 1777857270 | 7.78° C | 51% | 1010.9 hPa | 0 mm | - | 0 W/m² | - |
* Rain latest hour (hover to see other rain measurements)
** Current wind speed in m/s (hover to see current wind gust speed)